Notices

What's New in latest Release from April 7th, 2021:

- Updated Glossary, including Speed of Maximum Gust, and Total Hourly Precipitation

- Updated national and regional climate services offices contacts and prices information

- Addition of station inventory lists for 1981-2010, 1971-2000, and 1961-1990 Normals.

If you haven't already, please take our survey and provide feedback about our website: https://eccc.sondage-survey.ca/f/LanguageSelection.aspx?s=442ca660-fcf1-47c0-95a9-59707d6fd709

Hourly Data Report for January 26, 2004

TORONTO CITY
ONTARIO

43°40'00.000" N
79°24'00.000" W
112.50 m
6158355
71508
XTO

Download Data

Hourly Data (January 2004)
Hourly Data Report for January 26, 2004
TIME
LST
Temp Definition
°C
Dew Point Definition
°C
Rel Hum Definition
%
Precip. Amount Definition
mm

Wind Dir Definition
10's deg

Wind Spd Definition
km/h
Visibility Definition
km
Stn Press Definition
kPa
Hmdx Definition


Wind Chill Definition


Weather Definition


00:00 -10.3 -14.6 71   LegendMM LegendMM LegendMM 101.19     LegendNANA
01:00 -10.9 -16.7 62   LegendMM LegendMM LegendMM 101.23     LegendNANA
02:00 -11.1 -17.7 58   LegendMM LegendMM LegendMM 101.26     LegendNANA
03:00 -10.7 -17.8 56   LegendMM LegendMM LegendMM 101.25     LegendNANA
04:00 -11.2 -16.8 63   LegendMM LegendMM LegendMM 101.24     LegendNANA
05:00 -11.4 -14.9 75   LegendMM LegendMM LegendMM 101.23     LegendNANA
06:00 -11.9 -18.2 59   LegendMM LegendMM LegendMM 101.23     LegendNANA
07:00 -12.4 -16.7 70   LegendMM LegendMM LegendMM 101.27     LegendNANA
08:00 -12.6 -14.6 85   LegendMM LegendMM LegendMM 101.26     LegendNANA
09:00 -12.3 -13.8 89   LegendMM LegendMM LegendMM 101.26     LegendNANA
10:00 -11.6 -12.8 91   LegendMM LegendMM LegendMM 101.34     LegendNANA
11:00 -11.0 -12.3 90   LegendMM LegendMM LegendMM 101.25     LegendNANA
12:00 -12.8 -14.3 88   LegendMM LegendMM LegendMM 101.14     LegendNANA
13:00 -10.7 -12.0 90   LegendMM LegendMM LegendMM 101.03     LegendNANA
14:00 -10.5 -11.9 89   LegendMM LegendMM LegendMM 101.02     LegendNANA
15:00 -10.5 -12.0 89   LegendMM LegendMM LegendMM 100.87     LegendNANA
16:00 -9.6 -11.0 90   LegendMM LegendMM LegendMM 100.85     LegendNANA
17:00 -9.3 -10.5 91   LegendMM LegendMM LegendMM 100.77     LegendNANA
18:00 -8.7 -10.0 90   LegendMM LegendMM LegendMM 100.72     LegendNANA
19:00 -8.5 -9.8 90   LegendMM LegendMM LegendMM 100.68     LegendNANA
20:00 -8.1 -9.2 92   LegendMM LegendMM LegendMM 100.62     LegendNANA
21:00 -8.2 -9.1 93   LegendMM LegendMM LegendMM 100.52     LegendNANA
22:00 -8.0 -8.9 93   LegendMM LegendMM LegendMM 100.47     LegendNANA
23:00 -7.8 -8.9 92   LegendMM LegendMM LegendMM 100.41     LegendNANA

Notes on Data Quality.

Legend

  • E = Estimated
  • M = Missing
  • NA = Not Available*
  • [empty] = Indicates an unobserved value
Date modified: